User: anonymous   Login
Location: Oak Glen
(34.0495°N, 116.9470°E)
Time: 03:15:47
(UTC-07:00)
Language:

BUGSAT 1 - Orbit

View from above orbital plane
View from above orbital plane
View from above satellite
View from above satellite

Ground track
Ground track

The orbit data is extracted from the following two-line orbital elements,

1 40014U 14033E   18287.90127561 -.00000061  00000-0  14613-6 0  9996
2 40014  97.9839 225.3944 0031922 156.2221 204.0487 14.95118663235628
Epoch (UTC): 14 October 2018 21:37:50
Eccentricity: 0.0031922
inclination: 97.9839°
perigee height: 560 km
apogee height: 604 km
right ascension of ascending node: 225.3944°
argument of perigee: 156.2221°
revolutions per day: 14.95118663
mean anomaly at epoch: 204.0487°
orbit number at epoch: 23562

The dashed part of the orbit path shows where the satellite is in the earth's shadow,  

DLR